Zurück zum Katalog

STARLINK-34075

AktivKommunikationVLEO
NORAD 63917·PAYLOAD·🇺🇸 United States

Gestartet May 10, 2025 von Cape Canaveral Space Force Station

Loading…

Nächste Überflüge (nächste 24 Stunden)

TLE

AktuellSource: CelesTrak SupGP

Epoche: Sep 15, 2026, 03:33 UTC

1 63917C 25095AD  26258.14840278 -.00027201  00000+0 -98554-3 0  2589
2 63917  43.0020 186.0443 0001370 275.6388 150.0439 15.27581697    17

Verfolge STARLINK-34075 in Echtzeit mit AllMySat

Download on the App Store